Stations météo

Publicité
St-Sauveur, France (7300): Température de l'air & dewpoint: 14.09.2019 05:00:00 - 20.09.2019 05:00:00 (CEST)St-Sauveur, France (7300): Vitesse du vent & gusts: 14.09.2019 05:00:00 - 20.09.2019 05:00:00 (CEST)St-Sauveur, France (7300): Direction du vent: 14.09.2019 05:00:00 - 20.09.2019 05:00:00 (CEST)St-Sauveur, France (7300): reduced air pressure: 14.09.2019 05:00:00 - 20.09.2019 05:00:00 (CEST)St-Sauveur, France (7300): visibility: 14.09.2019 05:00:00 - 20.09.2019 05:00:00 (CEST)St-Sauveur, France (7300): Quantités de précipitations: 14.09.2019 05:00:00 - 20.09.2019 05:00:00 (CEST)
Date & Time tt [°C] td [°C] ff [km/h] ff [knt] fx [km/h] fx [knt] dd ppp [hPa] vv [km] rr [mm]
20.09.2019 05:00:00 14,3 5,1 22 12 41 22 ENE 1019,1 25 0,0
20.09.2019 04:00:00 14,7 5,5 22 12 40 22 ENE 1019,6 - 0,0
20.09.2019 03:00:00 15,3 6,0 23 12 46 25 ENE 1020,1 - 0,0
20.09.2019 02:00:00 15,8 6,2 23 12 46 25 ENE 1020,6 40 0,0
20.09.2019 01:00:00 16,4 6,2 23 12 42 23 ENE 1021,2 - 0,0
20.09.2019 00:00:00 17,0 6,5 22 12 40 22 ENE 1021,7 - 0,0
19.09.2019 23:00:00 17,3 7,1 21 11 42 23 ENE 1021,9 20 0,0
19.09.2019 22:00:00 18,0 7,1 19 11 38 21 ENE 1021,9 - 0,0
19.09.2019 21:00:00 18,9 7,0 21 12 45 24 ENE 1021,4 - 0,0
19.09.2019 20:00:00 20,0 6,7 25 14 49 26 ENE 1020,9 20 0,0
19.09.2019 19:00:00 21,9 6,5 24 13 47 25 ENE 1020,6 - 0,0
19.09.2019 18:00:00 23,0 6,3 25 14 45 25 ENE 1020,7 - 0,0
19.09.2019 17:00:00 23,3 6,1 28 15 51 28 ENE 1021,1 20 0,0
19.09.2019 16:00:00 23,6 6,8 24 13 45 24 ENE 1021,5 - 0,0
19.09.2019 15:00:00 23,0 5,9 24 13 47 25 ENE 1022,2 - 0,0
19.09.2019 14:00:00 22,2 6,0 23 12 45 24 ENE 1022,9 20 0,0
19.09.2019 13:00:00 20,8 6,7 24 13 51 27 ENE 1023,3 - 0,0
19.09.2019 12:00:00 18,9 6,4 31 17 56 30 ENE 1023,7 - 0,0
19.09.2019 11:00:00 17,0 6,8 26 14 51 27 ENE 1023,9 20 0,0
19.09.2019 10:00:00 14,9 6,5 29 15 51 28 NE 1023,5 - 0,0
19.09.2019 09:00:00 13,2 6,1 27 15 48 26 NE 1023,3 - 0,0
19.09.2019 08:00:00 13,0 5,9 30 16 53 29 NE 1023,0 20 0,0
19.09.2019 07:00:00 13,4 6,0 28 15 49 27 NE 1022,8 - 0,0
19.09.2019 06:00:00 13,8 5,9 29 16 50 27 NE 1022,8 - 0,0
19.09.2019 05:00:00 14,2 6,0 26 14 47 25 NE 1023,0 20 0,0
19.09.2019 04:00:00 14,6 6,2 23 13 44 24 NE 1023,2 - 0,0
19.09.2019 03:00:00 15,5 5,7 28 15 44 24 NE 1023,3 - 0,0
19.09.2019 02:00:00 16,1 5,7 24 13 47 26 ENE 1023,4 20 0,0
19.09.2019 01:00:00 16,6 5,5 23 13 48 26 ENE 1023,3 - 0,0
19.09.2019 00:00:00 17,3 5,9 26 14 52 28 NE 1023,1 - 0,0
18.09.2019 23:00:00 17,8 6,3 25 14 49 27 NE 1022,6 - 0,0
18.09.2019 22:00:00 18,4 5,2 28 15 50 27 NE 1022,0 - 0,0
18.09.2019 21:00:00 19,3 5,0 29 16 52 28 NE 1021,3 - 0,0
18.09.2019 20:00:00 20,0 6,3 25 13 50 27 NE 1020,8 25 0,0
18.09.2019 19:00:00 21,5 6,6 29 15 49 27 NE 1020,3 - 0,0
18.09.2019 18:00:00 22,3 7,7 26 14 45 25 NE 1020,4 - 0,0
18.09.2019 17:00:00 22,6 7,9 28 15 48 26 NE 1020,2 25 0,0
18.09.2019 16:00:00 23,0 8,7 26 14 45 25 NE 1020,6 - 0,0
18.09.2019 15:00:00 22,2 8,3 33 18 51 28 NE 1021,0 - 0,0
18.09.2019 14:00:00 21,3 8,2 31 17 49 27 NE 1020,9 25 0,0
18.09.2019 13:00:00 20,4 9,6 28 15 49 27 NE 1021,1 - 0,0
18.09.2019 12:00:00 18,4 9,5 29 15 48 26 NE 1021,1 - 0,0
18.09.2019 11:00:00 16,7 9,4 29 16 50 27 NE 1021,3 20 0,0
18.09.2019 10:00:00 15,2 9,1 30 16 52 28 NE 1021,0 - 0,0
18.09.2019 09:00:00 13,9 9,1 28 15 49 27 NE 1021,0 - 0,0
18.09.2019 08:00:00 13,9 9,5 30 16 52 28 NE 1020,7 20 0,0
18.09.2019 07:00:00 14,5 10,3 29 16 52 28 NE 1020,2 - 0,0
18.09.2019 06:00:00 15,2 10,8 29 16 52 28 NE 1019,9 - 0,0
18.09.2019 05:00:00 15,7 11,1 24 13 43 23 NE 1020,0 20 0,0
18.09.2019 04:00:00 16,2 11,6 27 14 42 23 NE 1019,7 - 0,0
18.09.2019 03:00:00 16,8 11,7 24 13 43 23 NE 1020,1 - 0,0
18.09.2019 02:00:00 17,5 12,4 26 14 42 23 NE 1019,9 20 0,0
18.09.2019 01:00:00 18,2 13,5 23 12 42 23 NE 1019,9 - 0,0
18.09.2019 00:00:00 18,8 13,9 20 11 34 19 NE 1020,0 - 0,0
17.09.2019 23:00:00 19,3 14,1 22 12 40 22 NE 1019,7 20 0,0
17.09.2019 22:00:00 20,1 14,7 22 12 36 20 NE 1019,4 - 0,0
17.09.2019 21:00:00 21,1 14,7 23 12 40 22 NE 1019,0 - 0,0
17.09.2019 20:00:00 21,5 15,1 23 12 37 20 NE 1018,5 20 0,0
17.09.2019 19:00:00 23,3 15,6 18 10 32 17 NNE 1018,5 - 0,0
17.09.2019 18:00:00 24,4 14,8 18 10 31 17 NNE 1018,6 - 0,0
17.09.2019 17:00:00 24,8 14,9 21 11 34 18 NNE 1019,0 20 0,0
17.09.2019 16:00:00 24,1 15,6 18 10 35 19 NNE 1019,4 - 0,0
17.09.2019 15:00:00 23,4 15,4 19 11 35 19 NE 1019,8 - 0,0
17.09.2019 14:00:00 21,5 15,3 22 12 38 21 NNE 1020,0 20 0,0
17.09.2019 13:00:00 19,8 15,2 25 13 36 19 NE 1020,5 - 0,0
17.09.2019 12:00:00 18,4 14,9 24 13 39 21 NE 1020,7 - 0,0
17.09.2019 11:00:00 17,1 14,7 22 12 39 21 NE 1020,9 6 0,0
17.09.2019 10:00:00 15,9 14,6 24 13 45 24 NE 1020,5 - 0,0
17.09.2019 09:00:00 15,6 14,6 25 14 42 23 NNE 1020,3 - 0,0
17.09.2019 08:00:00 15,3 14,7 22 12 40 22 NNE 1020,1 10 0,0
17.09.2019 07:00:00 15,4 14,8 22 12 35 19 NE 1019,9 - 0,0
17.09.2019 06:00:00 15,3 14,7 21 11 32 18 NNE 1019,9 - 0,0
17.09.2019 05:00:00 15,2 14,6 21 12 35 19 NNE 1020,1 - 0,0
17.09.2019 04:00:00 15,4 14,3 20 11 35 19 NNE 1020,3 - 0,0
17.09.2019 03:00:00 15,9 14,6 23 12 35 19 NNE 1020,5 - 0,0
17.09.2019 02:00:00 16,5 14,5 24 13 39 21 NNE 1020,4 30 0,0
17.09.2019 01:00:00 17,5 14,4 20 11 40 21 NNE 1020,5 - 0,0
17.09.2019 00:00:00 18,5 14,0 24 13 40 22 NNE 1020,6 - 0,0
16.09.2019 23:00:00 18,9 14,2 24 13 37 20 N 1020,5 - 0,0
16.09.2019 22:00:00 19,0 14,9 19 10 35 19 N 1020,3 - 0,0
16.09.2019 21:00:00 19,6 15,0 19 10 31 17 N 1020,1 - 0,0
16.09.2019 20:00:00 21,5 15,1 18 10 32 18 N 1019,8 20 0,0
16.09.2019 19:00:00 23,4 15,2 16 9 31 17 N 1019,5 - 0,0
16.09.2019 18:00:00 24,4 14,8 20 11 36 20 N 1019,6 - 0,0
16.09.2019 17:00:00 24,4 15,1 17 9 38 21 N 1020,0 25 0,0
16.09.2019 16:00:00 24,4 14,5 21 11 34 18 N 1020,4 - 0,0
16.09.2019 15:00:00 24,3 14,7 19 10 32 17 N 1020,7 - 0,0
16.09.2019 14:00:00 23,1 14,4 24 13 35 19 N 1021,0 - 0,0
16.09.2019 13:00:00 22,4 15,0 19 10 35 19 N 1021,3 - 0,0
16.09.2019 12:00:00 21,7 14,8 17 9 28 15 N 1021,6 - 0,0
16.09.2019 11:00:00 19,8 14,4 17 9 32 17 NNE 1021,7 15 0,0
16.09.2019 10:00:00 17,8 14,1 21 11 32 17 NNE 1021,5 - 0,0
16.09.2019 09:00:00 16,4 14,1 22 12 33 18 NNE 1021,2 - 0,0
16.09.2019 08:00:00 16,1 14,6 24 13 32 17 NNE 1020,9 18 0,0
16.09.2019 07:00:00 16,2 14,4 20 11 32 17 NNE 1020,6 - 0,0
16.09.2019 06:00:00 16,6 14,1 22 12 31 17 NNE 1020,7 - 0,0
16.09.2019 05:00:00 16,8 14,3 22 12 32 18 NNE 1020,9 20 0,0
16.09.2019 04:00:00 17,2 14,7 19 10 33 18 NNE 1021,3 - 0,0
16.09.2019 03:00:00 17,8 14,9 22 12 35 19 NNE 1021,6 - 0,0
16.09.2019 02:00:00 18,8 15,3 22 12 35 19 NNE 1021,4 20 0,0
16.09.2019 01:00:00 19,3 15,6 23 12 35 19 NNE 1021,5 - 0,0
16.09.2019 00:00:00 20,5 15,7 23 12 36 19 NNE 1021,7 - 0,0
15.09.2019 23:00:00 20,1 15,7 21 11 35 19 N 1021,9 20 0,0
15.09.2019 22:00:00 20,6 15,6 19 11 34 19 N 1021,6 - 0,0
15.09.2019 21:00:00 22,1 15,2 19 10 32 17 N 1021,2 - 0,0
15.09.2019 20:00:00 23,4 15,4 16 9 29 16 N 1020,8 25 0,0
15.09.2019 19:00:00 25,3 15,9 16 8 30 16 N 1020,9 - 0,0
15.09.2019 18:00:00 26,4 15,4 16 9 31 17 N 1021,1 - 0,0
15.09.2019 17:00:00 26,8 15,8 16 8 29 16 N 1021,6 - 0,0
15.09.2019 16:00:00 28,0 16,0 14 8 31 17 N 1021,9 - 0,0
15.09.2019 15:00:00 27,5 16,1 13 7 26 14 N 1022,6 - 0,0
15.09.2019 14:00:00 26,3 16,5 15 8 28 15 NNE 1022,9 20 0,0
15.09.2019 13:00:00 25,7 16,5 14 7 22 12 N 1023,6 - 0,0
15.09.2019 12:00:00 24,3 15,5 11 6 19 10 NNE 1024,1 - 0,0
15.09.2019 11:00:00 22,5 15,3 9 5 18 10 NE 1024,3 20 0,0
15.09.2019 10:00:00 19,9 14,9 11 6 20 11 NE 1024,0 - 0,0
15.09.2019 09:00:00 17,7 15,0 13 7 20 11 NE 1023,6 - 0,0
15.09.2019 08:00:00 16,9 14,7 15 8 20 11 NNE 1023,6 20 0,0
15.09.2019 07:00:00 17,0 14,6 16 9 21 11 NNE 1023,3 - 0,0
15.09.2019 06:00:00 17,6 14,9 15 8 24 13 NNE 1023,1 - 0,0
15.09.2019 05:00:00 18,5 15,2 16 8 24 13 NE 1023,6 - 0,0
15.09.2019 04:00:00 19,1 15,2 14 8 24 13 NE 1024,0 - 0,0
15.09.2019 03:00:00 18,8 15,7 14 8 19 11 NNE 1024,3 - 0,0
15.09.2019 02:00:00 20,7 15,9 14 8 26 14 NNE 1024,6 20 0,0
15.09.2019 01:00:00 20,4 16,0 16 9 26 14 ENE 1024,6 - 0,0
15.09.2019 00:00:00 19,9 16,1 15 8 21 12 NNE 1024,8 - 0,0
14.09.2019 23:00:00 19,7 15,8 15 8 18 10 NNE 1025,0 20 0,0
14.09.2019 22:00:00 20,0 15,4 15 8 19 11 NNE 1025,0 - 0,0
14.09.2019 21:00:00 20,8 15,8 14 8 17 9 N 1024,9 - 0,0
14.09.2019 20:00:00 23,0 16,3 10 5 16 8 N 1024,6 - 0,0
14.09.2019 19:00:00 26,3 16,5 8 4 19 11 N 1024,7 - 0,0
14.09.2019 18:00:00 25,7 16,8 11 6 23 12 NNE 1024,7 - 0,0
14.09.2019 17:00:00 27,2 16,5 13 7 19 11 NE 1024,9 25 0,0
14.09.2019 16:00:00 24,0 16,8 13 7 21 11 N 1025,4 - 0,0
14.09.2019 15:00:00 23,8 16,3 17 9 28 15 NNE 1025,8 - 0,0
14.09.2019 14:00:00 23,9 16,7 18 10 28 15 N 1026,3 - 0,0
14.09.2019 13:00:00 24,7 16,4 13 7 30 16 NE 1026,7 - 0,0
14.09.2019 12:00:00 22,7 15,8 18 10 34 18 NNE 1027,0 - 0,0
14.09.2019 11:00:00 20,7 15,5 22 12 40 22 NE 1027,5 20 0,0
14.09.2019 10:00:00 18,5 14,8 23 12 37 20 NE 1027,7 - 0,0
14.09.2019 09:00:00 16,7 14,5 22 12 36 19 NE 1027,5 - 0,0
14.09.2019 08:00:00 16,5 14,3 22 12 36 20 NE 1027,5 20 0,0
14.09.2019 07:00:00 16,6 14,6 24 13 35 19 NE 1027,1 - 0,0
14.09.2019 06:00:00 16,6 14,6 21 11 35 19 NNE 1027,0 - 0,0
14.09.2019 05:00:00 16,9 14,9 20 11 30 16 NNE 1027,3 - 0,0

tt = Température de l'air
td = dewpoint
ff = Vitesse du vent
fx = gusts
dd = Direction du vent
ppp = reduced air pressure
vv = visibility
rr = Quantités de précipitations

stations d'obs. à proximité